TIME,DELAY(SENSOR),PRES,OXYGEN,RAWTEMP,T(OPTODE),TCPHASE,FLUOR,BETA(BETA700),BETA(BETA412),BETA(BETA440),CDOM,C(CSC),ED(ED412.40),ED(ED444.00),ED(ED489.70),ED(ED554.30),LU(LU411.80),LU(LU443.40),LU(LU489.60),LU(LU554.10),COMP,TILTX,TILTY,CHECK
1340163935,5808,886.9299926757812000,42.4976501464843750,660.2863159179688000,4.6185469627380370,54.6225318908691400,53,100,88,80,80,15353,2147757065,2147423753,2148009490,2147873197,2147642633,2147064612,2148262820,2147195181,2259,4,14,17890
1340167531,5807,970.0900268554688000,45.7890815734863300,668.1591796875000000,4.3589859008789060,54.2416191101074200,52,102,88,78,82,15353,2147758564,2147421504,2148007506,2147874505,2147643675,2147064329,2148266358,2147200292,871,4,14,39546
1340171131,5807,976.5800170898438000,46.7098693847656250,670.8825073242188000,4.2690410614013670,54.1403312683105500,52,98,88,79,82,15353,2147756909,2147421101,2148011346,2147873984,2147644233,2147064649,2148262509,2147201252,83,4,13,60396
1340174731,5809,975.8300170898438000,47.4765510559082000,672.8452148437500000,4.2041649818420410,54.0572700500488300,52,100,89,79,83,15352,2147758921,2147419712,2148009801,2147874816,2147644297,2147060982,2148258377,2147197814,3419,4,13,40261
1340178331,5809,978.3300170898438000,48.0402412414550800,674.6099243164062000,4.1457958221435550,54.0018882751464840,52,99,90,79,82,15352,2147761755,2147422070,2148010102,2147874916,2147643401,2147059684,2148262464,2147199862,73,5,13,10319
1340181931,5809,986.3699951171875000,47.9382019042968750,674.6898803710938000,4.1431469917297360,54.0184288024902340,53,97,85,79,82,15352,2147761481,2147422875,2148011602,2147874962,2147645129,2147064969,2148262866,2147197257,3331,4,13,19663
1340185531,5809,991.2899780273438000,47.3262901306152340,673.4459228515625000,4.1842980384826660,54.0857582092285160,53,100,90,79,83,15349,2147761005,2147420507,2148009920,2147874020,2147641042,2147060973,2148259593,2147199104,475,4,14,62351
1340189131,5807,984.5900268554688000,47.3686485290527340,673.9807128906250000,4.1666111946105960,54.0880508422851560,52,99,90,79,82,15352,2147762523,2147421202,2148009033,2147874121,2147644854,2147056658,2148263149,2147198619,3236,4,13,52165
1340192731,5808,991.1699829101562000,47.3050193786621100,674.2586059570312000,4.1574168205261230,54.0965614318847660,52,98,88,78,83,15348,2147761417,2147419117,2148009792,2147874486,2147646226,2147062390,2148263268,2147199140,3544,4,13,24816
1340196331,5807,1005.2000122070312000,46.8686103820800800,672.8021850585938000,4.2055850028991700,54.1387596130371100,52,100,91,79,82,15350,2147756873,2147421321,2148009828,2147874761,2147641298,2147064146,2148261504,2147199981,341,4,13,44468
1340199931,5809,1001.1799926757812000,46.7706413269043000,672.3699951171875000,4.2198748588562010,54.1523895263671900,52,98,88,79,82,15349,2147764205,2147421083,2148008557,2147873673,2147643218,2147065490,2148258614,2147200301,192,4,14,29461
1340203531,5809,1011.3300170898438000,46.3159408569335940,671.1680908203125000,4.2596039772033690,54.2021598815918000,52,100,89,80,82,15348,2147761709,2147422738,2148009197,2147875072,2147640036,2147061851,2148252717,2147199826,3461,4,13,7907
1340207131,5809,1002.4799804687500000,46.2352104187011700,671.2910156250000000,4.2555408477783200,54.2143707275390600,53,100,88,78,83,15347,2147762432,2147423643,2148013147,2147874185,2147643401,2147060050,2148259419,2147201901,67,4,13,54806
1340210731,5809,993.1400146484375000,46.5612487792968750,673.6646118164062000,4.1770691871643070,54.1987304687500000,52,100,83,80,81,15348,2147760548,2147420132,2148008694,2147875849,2147645312,2147069549,2148260205,2147201554,392,4,13,46930
1340214331,5809,987.7899780273438000,47.2819213867187500,675.1253051757812000,4.1287398338317870,54.1139488220214840,53,100,89,80,82,15349,2147758601,2147421897,2148009856,2147872100,2147640886,2147064923,2148258697,2147198784,3479,4,14,10336
1340217931,5807,996.7000122070312000,47.8609695434570300,676.0010986328125000,4.0997519493103030,54.0398902893066400,52,99,88,79,82,15348,2147761755,2147421586,2148008859,2147875830,2147643657,2147062217,2148261897,2147197613,283,4,13,37706
1340221531,5811,988.1500244140625000,47.4904594421386700,675.6920776367188000,4.1099820137023930,54.0915184020996100,52,98,86,79,84,15348,2147763117,2147422537,2148007469,2147873380,2147642468,2147061211,2148262070,2147199021,166,4,13,55553
1340225131,5811,987.7199707031250000,47.8798599243164060,676.1525268554688000,4.0947418212890625,54.0437393188476560,53,99,88,79,82,15348,2147759387,2147422272,2148008539,2147875766,2147641051,2147059328,2148262253,2147199030,61,5,13,43530
1340228731,5808,991.7199707031250000,47.6340408325195300,675.9594726562500000,4.1011300086975100,54.0769805908203100,53,96,87,80,82,15345,2147759652,2147420096,2148005083,2147873956,2147645805,2147066797,2148261092,2147196745,366,4,13,60111
1340232331,5809,997.8800048828125000,48.1181716918945300,676.2871093750000000,4.0902838706970215,54.0138893127441400,52,100,88,79,83,15346,2147759524,2147420205,2148010624,2147877211,2147647250,2147058697,2148265938,2147198628,274,4,13,23969
1340235931,5806,998.2199707031250000,47.5814208984375000,675.1392211914062000,4.1282792091369630,54.0746803283691400,52,100,86,80,83,15347,2147764013,2147419602,2148007277,2147872420,2147643931,2147062701,2148262454,2147197156,109,4,13,45098
1340239531,5807,999.9799804687500000,47.3504486083984400,674.9592895507812000,4.1342329978942870,54.0980987548828100,53,98,86,79,83,15347,2147758848,2147422921,2148009042,2147877202,2147640630,2147059529,2148266203,2147197970,64,4,13,17802
1340243131,5810,1006.3900146484375000,46.8664894104003900,673.6420288085938000,4.1778140068054200,54.1523704528808600,52,100,89,79,82,15343,2147758573,2147421494,2148006875,2147875739,2147645485,2147061860,2148263780,2147201362,439,4,13,18082
1340246731,5808,1005.4699707031250000,46.2632102966308600,673.2114868164062000,4.1920490264892580,54.2343788146972660,52,99,87,79,82,15347,2147759835,2147421696,2148007780,2147876278,2147643666,2147062253,2148261906,2147202413,102,4,14,502
1340250331,5809,1004.8699951171875000,46.1908187866210940,672.8837280273438000,4.2028918266296390,54.2411613464355500,53,99,92,79,82,15346,2147759817,2147421430,2148006436,2147875145,2147644617,2147065956,2148267364,2147199296,149,4,13,52927
1340253931,5809,1010.8800048828125000,46.3613395690918000,672.4998779296875000,4.2155799865722660,54.2083015441894500,53,98,86,80,81,15346,2147761462,2147419657,2148008045,2147873883,2147643218,2147064502,2148262546,2147197494,3387,4,13,32719
1340257531,5808,1008.2999877929688000,45.9218482971191400,672.8980712890625000,4.2024149894714355,54.2787284851074200,53,109,87,80,83,15340,2147755949,2147421229,2148008585,2147877046,2147642980,2147059803,2148267273,2147201974,3565,4,14,33381
1340261131,5810,992.9199829101562000,46.2724113464355500,674.2980957031250000,4.1561107635498050,54.2487907409668000,52,100,91,79,82,15339,2147759908,2147418989,2148004470,2147872219,2147640804,2147060525,2148266724,2147199277,130,4,14,37796
1340264731,5811,999.5000000000000000,47.2907981872558600,676.0139770507812000,4.0993270874023440,54.1248512268066400,53,100,89,78,80,15341,2147760548,2147418230,2148009920,2147875812,2147642605,2147057280,2148267163,2147195474,6,5,13,53735
1340268331,5809,993.1599731445312000,47.7511482238769500,676.3322753906250000,4.0887870788574220,54.0619087219238300,53,100,89,79,83,15343,2147760210,2147421348,2148009252,2147874660,2147644635,2147059538,2148263689,2147197796,3315,4,13,50737
1340271931,5812,1004.1199951171875000,47.8768196105957000,675.8411254882812000,4.1050491333007810,54.0384483337402340,52,99,89,80,82,15341,2147761435,2147421284,2148010432,2147875785,2147642514,2147060891,2148267611,2147199606,510,4,13,50869
1340275531,5809,998.5700073242188000,47.3935585021972660,675.3218994140625000,4.1222338676452640,54.0975303649902340,53,101,91,79,83,15340,2147760448,2147419282,2148010916,2147878692,2147642852,2147059657,2148263122,2147199552,92,5,13,10922
1340279131,5807,1007.6799926757812000,47.7699508666992200,675.3458862304688000,4.1214389801025390,54.0474395751953100,53,99,87,80,83,15339,2147763602,2147423131,2148007195,2147876059,2147645568,2147063734,2148259648,2147198994,3278,4,13,58305
1340282731,5809,1010.0100097656250000,46.9865913391113300,673.9702758789062000,4.1669540405273440,54.1404609680175800,53,98,86,79,82,15341,2147759405,2147420105,2148006061,2147872768,2147642697,2147056905,2148260644,2147194569,68,4,13,57205
1340286331,5809,1011.2500000000000000,45.9487113952636700,673.9722290039062000,4.1668930053710940,54.2878799438476560,52,100,91,79,82,15338,2147759350,2147421083,2148007798,2147876937,2147644964,2147062912,2148262774,2147198162,308,4,13,16857
1340289931,5809,1017.5399780273438000,46.5460205078125000,672.7828979492188000,4.2062239646911620,54.1882896423339840,51,99,87,79,81,15339,2147760868,2147418313,2148008914,2147879360,2147644589,2147062893,2148262189,2147196745,428,4,13,63097
1340293531,5809,1006.2800292968750000,46.0969085693359400,673.2852783203125000,4.1896100044250490,54.2627410888671900,53,99,88,80,82,15338,2147759451,2147421293,2148009645,2147876169,2147642532,2147065654,2148264265,2147200713,9,4,13,3162
1340297131,5808,1010.0000000000000000,46.4131507873535160,673.5933837890625000,4.1794190406799320,54.2179718017578100,52,99,89,79,81,15337,2147760841,2147421229,2148008009,2147876964,2147643236,2147059538,2148259510,2147198290,3473,4,13,56748
1340300731,5808,1005.9400024414062000,46.1444015502929700,672.8218994140625000,4.2049350738525390,54.2468490600585940,52,100,87,80,81,15335,2147759277,2147420992,2148008731,2147876150,2147643145,2147064356,2148262948,2147199478,3523,4,13,15919
1340304331,5807,1003.2999877929688000,46.5234909057617200,674.6436767578125000,4.1446738243103030,54.2157096862793000,53,100,87,78,82,15335,2147760731,2147423378,2148007936,2147874761,2147642176,2147058395,2148263003,2147197540,159,4,13,2615
1340307931,5808,985.0700073242188000,47.5040092468261700,676.4609985351562000,4.0845298767089840,54.0982398986816400,52,101,92,79,82,15337,2147761462,2147418578,2148009142,2147872932,2147641115,2147061705,2148260571,2147199990,216,4,13,62964
1340308256,5808,985.2999877929688000,47.7541809082031250,676.7324829101562000,4.0755391120910645,54.0690612792968750,52,99,87,78,83,15372,2147760411,2147420745,2148008310,2147873408,2147645302,2147064118,2148260790,2147198619,174,4,13,49448
